Regional Weather Roundup
Issued by NWS Sioux Falls, SD

Home | Current Version | Previous Version | Text Only | Print | Product List | Glossary On
Versions: 1 2 3 4 5 6 7 8 9 10 11 12 13 14 15 16 17 18 19 20 21 22 23 24 25 26 27 28 29 30 31 32 33 34 35 36 37 38 39 40 41 42 43 44 45 46 47 48 49 50
000
ASUS43 KFSD 121610
RWRFSD

WEATHER ROUNDUP FOR SE SOUTH DAKOTA/SW MINNESOTA/NW IOWA
NATIONAL WEATHER SERVICE SIOUX FALLS SD
1000 AM CST TUE DEC 12 2017

NOTE: "FAIR" INDICATES FEW OR NO CLOUDS BELOW 12,000 FEET WITH NO
SIGNIFICANT WEATHER AND OR OBSTRUCTIONS TO VISIBILITY.


SDZ038>040-050-052>070-121700-
SOUTHEAST SOUTH DAKOTA

CITY           SKY/WX    TMP DP  RH WIND       PRES   REMARKS
BROOKINGS      CLOUDY    27  21  80 SW6       30.15S WCI  20
CHAMBERLAIN    SUNNY     32  29  88 W8        30.18F WCI  25
HURON          SUNNY     31  27  85 SW9       30.15F WCI  23
MITCHELL       SUNNY     31  27  85 SW6       30.19F WCI  25
SIOUX FALLS    CLOUDY    24  19  81 SW6       30.19F WCI  17
WINNER         FAIR      35  26  69 SW7       30.18F WCI  29
YANKTON        CLOUDY    25  21  85 S5        30.22F WCI  19
$$

MNZ071-072-080-081-089-090-097-098-121700-
SOUTHWEST MINNESOTA

CITY           SKY/WX    TMP DP  RH WIND       PRES   REMARKS
FAIRMONT       SUNNY     18  11  74 W8        30.20F WCI   8
LUVERNE        CLOUDY    21  18  86 SW8       30.19F WCI  12
MARSHALL       CLOUDY    26  21  81 W10       30.15S WCI  16
MONTEVIDEO     CLOUDY    19  18  93 SW5       30.13F WCI  13
PIPESTONE      CLOUDY    21  18  86 W10       30.15S WCI  10
REDWOOD FALLS  CLOUDY    18  11  74 S7        30.16F WCI   9
WORTHINGTON    SUNNY     19  14  81 SW10      30.18F WCI   7
$$

IAZ001>003-012>014-020>022-031-032-NEZ013-014-SDZ071-121700-
NORTHWEST IOWA

CITY           SKY/WX    TMP DP  RH WIND       PRES   REMARKS
CHEROKEE       SUNNY     20  17  85 W5        30.24F WCI  14
DENISON        SUNNY     19  16  86 SW5       30.28F WCI  13
ESTHERVILLE    SUNNY     19  13  77 W7        30.19F WCI  10
LE MARS        CLOUDY    21  18  86 S6        30.24F WCI  14
ORANGE CITY    CLOUDY    21  21 100 SW8       30.21F WCI  12
SHELDON        CLOUDY    21  18  86 SW8       30.19F WCI  12
SIOUX CITY     CLOUDY    21  18  88 CALM      30.27F
SPENCER        SUNNY     20  15  81 W7        30.21F WCI  11
STORM LAKE     SUNNY     19  14  79 W8        30.21F WCI   9
$$

ABBREVIATIONS USED IN REMARKS
   TC - TEMPERATURE IN CELSIUS
  WCI - WIND CHILL INDEX
   HX - HEAT INDEX
  VSB - VISIBILITY





USA.gov is the U.S. government's official web portal to all federal, state and local government web resources and services.